Weather History for Paris, TX

Change the Weather History Date:

Tuesday, November 26, 2013

  Actual Average Record
Temperature  
Mean Temperature 42 °F -  
Max Temperature 50 °F 58 °F 75 °F (1997)
Min Temperature 33 °F 40 °F 28 °F (1996)
Degree Days  
Heating Degree Days 24    
Moisture  
Dew Point 27 °F    
Average Humidity 62    
Maximum Humidity 81    
Minimum Humidity 43    
Precipitation  
Precipitation 0.00 in - - ()
Sea Level Pressure  
Sea Level Pressure 30.18 in    
Wind  
Wind Speed 14 mph (NNW)    
Max Wind Speed 28 mph    
Max Gust Speed 36 mph    
Visibility 10 miles    
Events      
Averages and records for this station are not official NWS values.
T = Trace of Precipitation, MM = Missing Value Source: NWS Daily Summary

Daily Weather History Graph

Daily Weather History Graph

Search for Another Location

Airport:

Trip Planner

Search our weather history database for the weather conditions in past years. The results will help you decide how hot, cold, wet, or windy it might be!

Date:

Astronomy

Nov. 26, 2013 Rise Set
Actual Time 7:04 AM CST 5:14 PM CST
Civil Twilight 6:37 AM CST 5:41 PM CST
Nautical Twilight 6:06 AM CST 6:11 PM CST
Astronomical Twilight 5:36 AM CST 6:41 PM CST
Moon 12:27 AM CST (11/26) 1:04 PM CST (11/26)
Length of Visible Light 11h 04m
Length of Day
10h 10m
Last Quarter, 41% of the Moon is Illuminated
Nov 26
Last Quarter
Dec 2
New
Dec 9
First Quarter
Dec 17
Full
Dec 25
Last Quarter

Hourly Weather History & Observations

Time (CST) Temp. Windchill Dew Point Humidity Pressure Visibility Wind Dir Wind Speed Gust Speed Precip Events Conditions
12:15 AM 35.6 °F 28.0 °F 30.2 °F 81% 30.16 in 10.0 mi North 10.4 mph - N/A   Overcast
12:35 AM 35.6 °F 28.0 °F 30.2 °F 81% 30.16 in 10.0 mi North 10.4 mph - N/A   Overcast
12:55 AM 35.6 °F 28.6 °F 30.2 °F 81% 30.16 in 10.0 mi North 9.2 mph - N/A   Overcast
1:15 AM 35.6 °F 27.5 °F 30.2 °F 81% 30.13 in 10.0 mi North 11.5 mph - N/A   Overcast
1:35 AM 35.6 °F 28.0 °F 30.2 °F 81% 30.13 in 10.0 mi North 10.4 mph - N/A   Overcast
1:55 AM 35.6 °F 28.0 °F 30.2 °F 81% 30.11 in 10.0 mi North 10.4 mph - N/A   Overcast
2:15 AM 35.6 °F 28.0 °F 30.2 °F 81% 30.15 in 10.0 mi North 10.4 mph - N/A   Overcast
2:35 AM 35.6 °F 29.2 °F 30.2 °F 81% 30.16 in 10.0 mi North 8.1 mph - N/A   Overcast
2:55 AM 35.6 °F 28.6 °F 28.4 °F 75% 30.16 in 10.0 mi North 9.2 mph - N/A   Overcast
3:15 AM 35.6 °F 26.6 °F 30.2 °F 81% 30.15 in 10.0 mi NNW 13.8 mph - N/A   Overcast
3:35 AM 35.6 °F 26.6 °F 28.4 °F 75% 30.13 in 10.0 mi NNW 13.8 mph - N/A   Overcast
3:55 AM 35.6 °F 25.5 °F 28.4 °F 75% 30.11 in 10.0 mi North 17.3 mph - N/A   Overcast
4:15 AM 35.6 °F 26.6 °F 28.4 °F 75% 30.13 in 10.0 mi North 13.8 mph 17.3 mph N/A   Mostly Cloudy
4:35 AM 35.6 °F 26.6 °F 28.4 °F 75% 30.14 in 10.0 mi North 13.8 mph - N/A   Mostly Cloudy
4:55 AM 35.6 °F 26.2 °F 28.4 °F 75% 30.17 in 10.0 mi NNW 15.0 mph - N/A   Mostly Cloudy
5:15 AM 35.6 °F 27.1 °F 28.4 °F 75% 30.15 in 10.0 mi North 12.7 mph - N/A   Mostly Cloudy
5:35 AM 35.6 °F 27.1 °F 28.4 °F 75% 30.16 in 10.0 mi North 12.7 mph 18.4 mph N/A   Overcast
5:55 AM 35.6 °F 27.1 °F 28.4 °F 75% 30.15 in 10.0 mi North 12.7 mph - N/A   Overcast
6:15 AM 35.6 °F 27.1 °F 28.4 °F 75% 30.15 in 10.0 mi North 12.7 mph - N/A   Overcast
6:35 AM 35.6 °F 27.5 °F 28.4 °F 75% 30.14 in 10.0 mi North 11.5 mph - N/A   Overcast
6:55 AM 35.6 °F 27.5 °F 28.4 °F 75% 30.15 in 10.0 mi North 11.5 mph - N/A   Overcast
7:15 AM 35.6 °F 27.5 °F 28.4 °F 75% 30.16 in 10.0 mi NNW 11.5 mph - N/A   Overcast
7:35 AM 35.6 °F 27.5 °F 28.4 °F 75% 30.16 in 10.0 mi North 11.5 mph - N/A   Overcast
7:55 AM 35.6 °F 27.1 °F 28.4 °F 75% 30.16 in 10.0 mi NNW 12.7 mph - N/A   Overcast
8:15 AM 37.4 °F 29.3 °F 28.4 °F 70% 30.16 in 10.0 mi North 12.7 mph 18.4 mph N/A   Overcast
8:35 AM 37.4 °F 29.3 °F 28.4 °F 70% 30.18 in 10.0 mi NNW 12.7 mph 19.6 mph N/A   Overcast
8:55 AM 37.4 °F 30.8 °F 28.4 °F 70% 30.20 in 10.0 mi North 9.2 mph - N/A   Overcast
9:15 AM 37.4 °F 29.8 °F 28.4 °F 70% 30.20 in 10.0 mi NNW 11.5 mph - N/A   Overcast
9:35 AM 37.4 °F 28.5 °F 28.4 °F 70% 30.19 in 10.0 mi NNW 15.0 mph - N/A   Overcast
9:55 AM 39.2 °F 30.5 °F 30.2 °F 70% 30.18 in 10.0 mi NNW 16.1 mph - N/A   Overcast
10:15 AM 41.0 °F 31.6 °F 30.2 °F 65% 30.17 in 10.0 mi NNW 20.7 mph - N/A   Overcast
10:35 AM 41.0 °F 33.1 °F 30.2 °F 65% 30.18 in 10.0 mi NNW 15.0 mph 24.2 mph N/A   Overcast
10:55 AM 39.2 °F 30.8 °F 30.2 °F 70% 30.18 in 10.0 mi NNW 15.0 mph 21.9 mph N/A   Overcast
11:15 AM 41.0 °F 32.5 °F 30.2 °F 65% 30.17 in 10.0 mi NNW 17.3 mph 21.9 mph N/A   Overcast
11:35 AM 42.8 °F 34.5 °F 30.2 °F 61% 30.16 in 10.0 mi North 18.4 mph 25.3 mph N/A   Overcast
11:55 AM 42.8 °F 34.3 °F 30.2 °F 61% 30.15 in 10.0 mi North 19.6 mph 23.0 mph N/A   Overcast
12:15 PM 42.8 °F 33.8 °F 30.2 °F 61% 30.13 in 10.0 mi North 21.9 mph 25.3 mph N/A   Overcast
12:35 PM 44.6 °F 36.1 °F 32.0 °F 61% 30.13 in 10.0 mi NNW 21.9 mph 29.9 mph N/A   Overcast
12:55 PM 44.6 °F 36.4 °F 30.2 °F 57% 30.11 in 10.0 mi NNW 20.7 mph 27.6 mph N/A   Mostly Cloudy
1:15 PM 46.4 °F 39.2 °F 30.2 °F 53% 30.11 in 10.0 mi North 18.4 mph - N/A   Scattered Clouds
1:35 PM 48.2 °F - 30.2 °F 50% 30.11 in 10.0 mi NNW 17.3 mph - N/A   Clear
1:55 PM 48.2 °F - 30.2 °F 50% 30.10 in 10.0 mi NNW 21.9 mph 26.5 mph N/A   Clear
2:15 PM 50.0 °F - 30.2 °F 47% 30.10 in 10.0 mi NNW 20.7 mph 31.1 mph N/A   Clear
2:35 PM 50.0 °F - 28.4 °F 43% 30.10 in 10.0 mi North 21.9 mph 32.2 mph N/A   Clear
2:55 PM 48.2 °F - 28.4 °F 46% 30.11 in 10.0 mi NNW 26.5 mph 33.4 mph N/A   Clear
3:15 PM 48.2 °F - 28.4 °F 46% 30.12 in 10.0 mi North 20.7 mph 25.3 mph N/A   Clear
3:35 PM 48.2 °F - 28.4 °F 46% 30.13 in 10.0 mi North 18.4 mph 26.5 mph N/A   Clear
3:55 PM 48.2 °F - 28.4 °F 46% 30.13 in 10.0 mi North 19.6 mph 27.6 mph N/A   Clear
4:15 PM 48.2 °F - 28.4 °F 46% 30.14 in 10.0 mi North 16.1 mph - N/A   Clear
4:35 PM 48.2 °F - 28.4 °F 46% 30.15 in 10.0 mi North 13.8 mph 19.6 mph N/A   Clear
4:55 PM 46.4 °F 40.1 °F 26.6 °F 46% 30.16 in 10.0 mi North 15.0 mph - N/A   Clear
5:15 PM 44.6 °F 37.2 °F 24.8 °F 46% 30.17 in 10.0 mi North 17.3 mph 21.9 mph N/A   Clear
5:35 PM 44.6 °F 38.8 °F 24.8 °F 46% 30.18 in 10.0 mi North 11.5 mph - N/A   Clear
5:55 PM 42.8 °F 38.0 °F 24.8 °F 49% 30.19 in 10.0 mi NNW 8.1 mph - N/A   Clear
6:15 PM 42.8 °F 35.8 °F 26.6 °F 53% 30.19 in 10.0 mi North 13.8 mph - N/A   Clear
6:35 PM 42.8 °F 36.2 °F 26.6 °F 53% 30.20 in 10.0 mi North 12.7 mph 18.4 mph N/A   Clear
6:55 PM 42.8 °F 35.1 °F 24.8 °F 49% 30.21 in 10.0 mi North 16.1 mph - N/A   Clear
7:15 PM 42.8 °F 36.6 °F 24.8 °F 49% 30.22 in 10.0 mi NNW 11.5 mph - N/A   Clear
7:35 PM 42.8 °F 36.6 °F 24.8 °F 49% 30.23 in 10.0 mi NNW 11.5 mph - N/A   Clear
7:55 PM 42.8 °F 35.4 °F 24.8 °F 49% 30.23 in 10.0 mi NNW 15.0 mph - N/A   Clear
8:15 PM 41.0 °F 33.5 °F 24.8 °F 53% 30.25 in 10.0 mi NNW 13.8 mph - N/A   Clear
8:35 PM 41.0 °F 33.1 °F 24.8 °F 53% 30.26 in 10.0 mi North 15.0 mph 18.4 mph N/A   Clear
8:55 PM 41.0 °F 30.9 °F 24.8 °F 53% 30.27 in 10.0 mi North 24.2 mph 28.8 mph N/A   Clear
9:15 PM 39.2 °F 28.7 °F 24.8 °F 56% 30.27 in 10.0 mi North 23.0 mph 33.4 mph N/A   Clear
9:35 PM 39.2 °F 27.8 °F 23.0 °F 52% 30.29 in 10.0 mi North 27.6 mph 35.7 mph N/A   Clear
9:55 PM 37.4 °F 26.4 °F 19.4 °F 48% 30.31 in 10.0 mi North 23.0 mph 32.2 mph N/A   Clear
10:15 PM 35.6 °F 26.6 °F 19.4 °F 52% 30.32 in 10.0 mi North 13.8 mph 25.3 mph N/A   Clear
10:35 PM 35.6 °F 25.2 °F 19.4 °F 52% 30.33 in 10.0 mi North 18.4 mph 26.5 mph N/A   Clear
10:55 PM 35.6 °F 24.2 °F 19.4 °F 52% 30.33 in 10.0 mi North 21.9 mph 26.5 mph N/A   Clear
11:15 PM 35.6 °F 26.6 °F 19.4 °F 52% 30.34 in 10.0 mi North 13.8 mph - N/A   Clear
11:35 PM 33.8 °F 25.8 °F 19.4 °F 56% 30.34 in 10.0 mi NNW 10.4 mph - N/A   Clear
11:55 PM 33.8 °F 23.9 °F 19.4 °F 56% 30.34 in 10.0 mi NNW 15.0 mph - N/A   Clear